Location: Dal�� Lhota
(48.7500°N, 14.0167°E)
Time: 01:17:46
(UTC+00:00)

S-56A Canister/Altair - Pass Details

Date: 05 August 2021
Orbit: 632 x 2500 km, 38.9° (Epoch: 19 September)

Event Time Altitude Azimuth Distance (km) Brightness Sun altitude
Rises 19:09:31 0° 281° (W) 6,143 13.6 -5.6°
Reaches altitude 10° 19:14:40 10° 269° (W) 5,168 12.7 -6.3°
Maximum altitude 19:25:06 24° 225° (SW) 3,976 11.3 -7.7°
Drops below altitude 10° 19:34:30 10° 179° (S) 4,576 11.1 -9.0°
Sets 19:38:44 0° 166° (SSE) 5,305 11.3 -9.5°
